EW0159 Weather Reports


Display with metric or nautical units.
time (UTC)temp
F
wind
direction
speed
MPH
gust
MPH
rain 1hr
in
rain 24hr
in
rain mn
in
humidity
%
barometer
mb
20260502151601 49 247 0.0 0.0 0.00 0.00 0.00 77 1016.2
20260502123031 46 360 0.0 2.0 0.00 0.00 0.00 80 1016.0
20260502121532 46 360 1.0 2.0 0.00 0.00 0.00 80 1016.0
20260502114528 46 200 2.0 3.0 0.00 0.00 0.00 80 1016.1
20260502113027 47 200 0.0 3.0 0.00 0.00 0.00 81 1016.1
20260502111522 47 9 0.0 2.0 0.00 0.00 0.00 81 1015.7
20260502110021 48 20 0.0 2.0 0.00 0.00 0.00 81 1016.0
20260502104525 48 5 0.0 3.0 0.00 0.00 0.00 81 1015.9
20260502103017 48 273 0.0 2.0 0.00 0.00 0.00 82 1015.6
20260502101514 48 240 0.0 3.0 0.00 0.00 0.00 82 1015.8
20260502091505 50 340 1.0 4.0 0.00 0.00 0.00 82 1016.6
20260502064550 52 344 0.0 1.0 0.00 0.00 0.00 82 1016.7
20260502063047 52 344 0.0 2.0 0.00 0.00 0.00 81 1016.7
20260502061547 53 33 0.0 2.0 0.00 0.00 0.00 82 1016.6
20260502060049 53 33 0.0 1.0 0.00 0.00 0.00 81 1016.5
20260502054600 54 33 0.0 0.0 0.00 0.00 0.00 80 1016.3
20260502053046 54 35 1.0 2.0 0.00 0.00 0.00 79 1016.2
20260502051548 55 35 1.0 2.0 0.00 0.00 0.00 78 1016.2
20260502050048 56 35 1.0 2.0 0.00 0.00 0.00 77 1016.0
20260502044544 57 35 0.0 1.0 0.00 0.00 0.00 74 1015.8
20260502043058 58 9 0.0 8.0 0.00 0.00 0.00 69 1015.6
20260502041609 58 342 1.0 4.0 0.00 0.00 0.00 69 1015.4
20260502040052 59 313 0.0 3.0 0.00 0.00 0.00 72 1015.3
20260502034546 59 144 0.0 2.0 0.00 0.00 0.00 71 1015.1
20260502033042 60 153 0.0 3.0 0.00 0.00 0.00 69 1014.9
20260502031541 62 101 0.0 2.0 0.00 0.00 0.00 68 1014.8
20260502030058 62 101 1.0 4.0 0.00 0.00 0.00 65 1014.6
20260502024552 64 205 0.0 2.0 0.00 0.00 0.00 65 1014.4
20260502023054 65 336 1.0 4.0 0.00 0.00 0.00 64 1014.2
20260502021541 66 298 1.0 4.0 0.00 0.00 0.00 63 1014.0
20260502020039 66 277 2.0 7.0 0.00 0.00 0.00 62 1013.9
20260502014540 68 258 2.0 6.0 0.00 0.00 0.00 60 1013.9
20260502013044 68 351 2.0 7.0 0.00 0.00 0.00 60 1014.0
20260502011554 69 290 2.0 6.0 0.00 0.00 0.00 59 1014.0
20260502010037 71 234 2.0 9.0 0.00 0.00 0.00 56 1014.0
20260502004539 72 330 2.0 6.0 0.00 0.00 0.00 56 1013.9
20260502003036 74 327 3.0 6.0 0.00 0.00 0.00 55 1013.7
20260502001540 73 223 2.0 4.0 0.00 0.00 0.00 57 1013.6
20260502000051 74 213 3.0 6.0 0.00 0.00 0.00 54 1013.6
20260501234533 75 153 4.0 7.0 0.00 0.00 0.00 53 1013.6
20260501233032 75 138 1.0 5.0 0.00 0.00 0.00 52 1013.7
20260501231529 74 261 2.0 5.0 0.00 0.00 0.00 52 1013.8
20260501230101 74 215 3.0 9.0 0.00 0.00 0.00 56 1014.0
20260501224526 73 233 2.0 9.0 0.00 0.00 0.00 56 1014.2
20260501223024 73 189 3.0 7.0 0.00 0.00 0.00 54 1014.4
20260501221522 73 209 5.0 10.0 0.00 0.00 0.00 57 1014.5
20260501220019 74 229 5.0 9.0 0.00 0.00 0.00 57 1014.6
20260501214519 74 222 6.0 8.0 0.00 0.00 0.00 55 1014.7
20260501213017 72 126 3.0 7.0 0.00 0.00 0.00 57 1014.8
20260501211513 71 233 4.0 7.0 0.00 0.00 0.00 60 1015.1
20260501210010 71 155 4.0 7.0 0.00 0.00 0.00 60 1015.3
20260501204508 70 240 4.0 7.0 0.00 0.00 0.00 61 1015.5
20260501203019 69 214 3.0 7.0 0.00 0.00 0.00 61 1015.7
20260501201504 69 244 4.0 7.0 0.00 0.00 0.00 63 1015.8
20260501200003 68 200 5.0 8.0 0.00 0.00 0.00 65 1016.0
20260501194502 68 159 4.0 7.0 0.00 0.00 0.00 65 1016.1
20260501193100 67 228 3.0 7.0 0.00 0.00 0.00 69 1016.0
20260501191559 67 184 4.0 7.0 0.00 0.00 0.00 66 1016.1
20260501190055 66 186 3.0 5.0 0.00 0.00 0.00 67 1016.2
20260501184553 65 185 2.0 4.0 0.00 0.00 0.00 66 1016.4
20260501183050 64 103 3.0 5.0 0.00 0.00 0.00 68 1016.7
20260501181546 63 157 2.0 6.0 0.00 0.00 0.00 71 1016.7
20260501180048 62 169 2.0 6.0 0.00 0.00 0.00 73 1016.9
20260501174541 62 183 4.0 7.0 0.00 0.00 0.00 75 1017.0
20260501173048 61 209 4.0 7.0 0.00 0.00 0.00 75 1016.9
20260501171535 60 264 2.0 6.0 0.00 0.00 0.00 76 1016.8
20260501170032 59 253 2.0 5.0 0.00 0.00 0.00 77 1016.8
20260501164540 58 227 3.0 5.0 0.00 0.00 0.00 77 1016.9
20260501163027 58 149 1.0 5.0 0.00 0.00 0.00 80 1016.9
20260501161525 57 219 2.0 5.0 0.00 0.00 0.00 81 1017.1